Location: CAO
(44.5093°N, 80.3921°W)
Time: 09:16:12
(UTC-05:00)

ARIANE 6 FM1 Upper Stage - Pass Details

Date: 28 January 2026
Orbit: 522 x 609 km, 62.0° (Epoch: 9 February)

Event Time Altitude Azimuth Distance (km) Brightness Sun altitude
Rises 18:57:34 0° 261° (W) 2,699 8.0 -16.5°
Reaches altitude 10° 19:00:19 10° 279° (W) 1,795 6.4 -17.0°
Maximum altitude 19:03:14 19° 326° (NW) 1,313 4.8 -17.5°
Enters shadow 19:06:04 10° 12° (NNE) 1,765 5.0 -18.0°
